Location: Bathurst
(33.4193°S, 149.5775°E)
Time: 05:01:30
(UTC+10:00)

A-11 Canister half - All Passes

Search period start: 19 June 2021 00:00
Search period end: 29 June 2021 00:00
Orbit: 1527 x 1681 km, 47.3° (Epoch: 18 June)

Date Brightness Start Highest point End Pass type
(mag) Time Alt. Az. Time Alt. Az. Time Alt. Az.
19 Jun - 08:45:38 10° N 08:54:14 35° NE 09:03:02 10° ESE daylight
19 Jun - 10:48:47 10° WNW 10:58:48 77° SW 11:09:04 10° SE daylight
19 Jun - 12:55:59 10° W 13:05:21 40° SSW 13:14:48 10° SE daylight
19 Jun - 15:03:23 10° SW 15:12:55 41° SSE 15:22:18 10° E daylight
19 Jun - 17:09:01 10° SW 17:19:17 83° SE 17:29:14 10° NE visible
19 Jun - 19:15:18 10° WSW 19:23:40 31° NW 19:31:51 10° N visible
20 Jun - 08:24:12 10° N 08:32:37 33° NE 08:41:13 10° ESE daylight
20 Jun - 10:27:05 10° WNW 10:37:05 80° SW 10:47:22 10° SE daylight
20 Jun - 12:34:10 10° W 12:43:33 41° SSW 12:53:02 10° SE daylight
20 Jun - 14:41:38 10° SW 14:51:07 41° SSE 15:00:29 10° E daylight
20 Jun - 16:47:18 10° SW 16:57:35 80° SE 17:07:33 10° ENE daylight
20 Jun - 18:53:28 10° WSW 19:02:04 33° NW 19:10:27 10° N visible
21 Jun - 08:02:48 10° N 08:10:59 31° NE 08:19:23 10° ESE daylight
21 Jun - 10:05:25 10° NW 10:15:23 83° SW 10:25:40 10° SE daylight
21 Jun - 12:12:22 10° W 12:21:45 41° SSW 12:31:18 10° SE daylight
21 Jun - 14:19:53 10° SW 14:29:19 40° SSE 14:38:41 10° E daylight
21 Jun - 16:25:37 10° SW 16:35:53 77° SE 16:45:52 10° ENE daylight
21 Jun - 18:31:38 10° WSW 18:40:26 35° NW 18:49:02 10° N visible
22 Jun - 07:41:25 10° N 07:49:23 29° NE 07:57:31 10° ESE daylight
22 Jun - 09:43:44 10° NW 09:53:41 86° SW 10:03:57 10° SE daylight
22 Jun - 11:50:32 10° W 11:59:58 42° SSW 12:09:33 10° SE daylight
22 Jun - 13:58:07 10° WSW 14:07:31 39° S 14:16:52 10° ESE daylight
22 Jun - 16:03:54 10° SW 16:14:09 74° SSE 16:24:09 10° ENE daylight
22 Jun - 18:09:49 10° WSW 18:18:49 38° NW 18:27:35 10° NNE visible
23 Jun - 07:20:04 10° N 07:27:46 27° NE 07:35:39 10° ESE daylight
23 Jun - 09:22:04 10° NW 09:31:59 89° SW 09:42:14 10° SE daylight
23 Jun - 11:28:44 10° W 11:38:11 43° SSW 11:47:47 10° SE daylight
23 Jun - 13:36:21 10° WSW 13:45:44 39° S 13:55:03 10° ESE daylight
23 Jun - 15:42:11 10° SW 15:52:27 71° SSE 16:02:27 10° ENE daylight
23 Jun - 17:48:01 10° WSW 17:57:11 40° NW 18:06:07 10° NNE visible
24 Jun - 06:58:44 10° N 07:06:09 25° NE 07:13:45 10° ESE daylight
24 Jun - 09:00:25 10° NW 09:10:18 87° NE 09:20:32 10° SE daylight
24 Jun - 11:06:57 10° W 11:16:24 44° SSW 11:26:03 10° SE daylight
24 Jun - 13:14:35 10° WSW 13:23:55 38° S 13:33:14 10° ESE daylight
24 Jun - 15:20:30 10° SW 15:30:43 68° SSE 15:40:43 10° ENE daylight
24 Jun - 17:26:14 10° WSW 17:35:33 43° NW 17:44:38 10° NNE visible
25 Jun - 06:37:26 10° N 06:44:33 23° NE 06:51:50 10° ESE visible
25 Jun - 08:38:47 10° NW 08:48:37 84° NE 08:58:48 10° SE daylight
25 Jun - 10:45:09 10° W 10:54:38 45° SSW 11:04:19 10° SE daylight
25 Jun - 12:52:50 10° WSW 13:02:07 38° S 13:11:25 10° ESE daylight
25 Jun - 14:58:47 10° SW 15:08:59 66° SSE 15:18:59 10° ENE daylight
25 Jun - 17:04:27 10° WSW 17:13:55 45° NW 17:23:08 10° NNE daylight
26 Jun - 06:16:10 10° N 06:22:57 22° NE 06:29:53 10° E visible
26 Jun - 08:17:08 10° NW 08:26:56 80° NE 08:37:06 10° SE daylight
26 Jun - 10:23:22 10° W 10:32:51 46° SSW 10:42:35 10° SE daylight
26 Jun - 12:31:03 10° WSW 12:40:19 38° S 12:49:35 10° ESE daylight
26 Jun - 14:37:05 10° SW 14:47:15 64° SSE 14:57:15 10° ENE daylight
26 Jun - 16:42:41 10° WSW 16:52:16 48° NW 17:01:37 10° NNE daylight
27 Jun - 05:54:57 10° NNE 06:01:22 20° ENE 06:07:54 10° E visible
27 Jun - 07:55:31 10° NW 08:05:16 77° NE 08:15:23 10° SE daylight
27 Jun - 10:01:35 10° W 10:11:05 47° SSW 10:20:50 10° SE daylight
27 Jun - 12:09:17 10° WSW 12:18:30 37° S 12:27:46 10° ESE daylight
27 Jun - 14:15:23 10° SW 14:25:31 61° SSE 14:35:30 10° ENE daylight
27 Jun - 16:20:56 10° WSW 16:30:37 51° NW 16:40:06 10° NNE daylight
28 Jun - 05:33:46 10° NNE 05:39:46 18° ENE 05:45:53 10° E visible
28 Jun - 07:33:54 10° NW 07:43:36 73° NE 07:53:39 10° SE daylight
28 Jun - 09:39:48 10° W 09:49:19 48° SSW 09:59:06 10° SE daylight
28 Jun - 11:47:31 10° WSW 11:56:42 37° S 12:05:57 10° ESE daylight
28 Jun - 13:53:40 10° SW 14:03:46 59° SSE 14:13:44 10° ENE daylight
28 Jun - 15:59:10 10° WSW 16:08:58 54° NW 16:18:33 10° NNE daylight
28 Jun - 18:11:11 10° WNW 18:12:30 10° WNW 18:13:49 10° NW visible
